Regional Weather Roundup
Issued by NWS State College, PA

Home | Current Version | Previous Version | Text Only | Print | Product List | Glossary Off
Versions: 1 2 3 4 5 6 7 8 9 10 11 12 13 14 15 16 17 18 19 20 21 22 23 24 25 26 27 28 29 30 31 32 33 34 35 36 37 38 39 40 41 42 43 44 45 46 47 48 49 50

000
ASUS41 KCTP 311010
RWRCTP

REGIONAL WEATHER ROUNDUP
NATIONAL WEATHER SERVICE STATE COLLEGE PA
600 AM EDT TUE MAY 31 2016

Note: "fair" indicates few or no clouds below 12,000 feet with no
significant weather and/or obstructions to visibility.

* = STATION THAT DOES NOT REPORT PRECIPITATION /E.G. RAIN...SNOW...ETC/
    THUNDER OR FOG.

PAZ002>004-007>009-013>016-020>023-029>032-311100-
WESTERN PENNSYLVANIA

CITY           SKY/WX    TMP DP  RH WIND       PRES   REMARKS
ERIE           CLEAR     63  54  72 MISG      30.00R
MEADVILLE      CLEAR     58  54  86 CALM      30.02R
FRANKLIN*      CLEAR     54  50  87 CALM      30.04S
NEW CASTLE     FAIR      53  53 100 CALM      30.02R FOG
BEAVER COUNTY  NOT AVBL
BUTLER*        CLEAR    N/A N/A N/A NE3       30.03S
PITTSBURGH INT MOCLDY    61  56  83 CALM      29.99S
PITTSBURGH     PTCLDY    61  57  87 CALM      30.00R FOG
INDIANA*       CLEAR     55  54  94 CALM      30.05R
LATROBE        CLEAR     54  54 100 CALM      30.02R FOG
WASHINGTON CO*   N/A     52  50  93 CALM      30.01S VSB 1/4
$$

PAZ004>006-010>012-017>019-024>028-033>037-041-042-045-046-049>053-311100-
CENTRAL PENNSYLVANIA

CITY           SKY/WX    TMP DP  RH WIND       PRES   REMARKS
BRADFORD       CLEAR     47  45  93 CALM      30.04R
DUBOIS         CLEAR     55  51  86 CALM      30.02S
CLEARFIELD     CLEAR     52  50  93 CALM      30.03R
JOHNSTOWN      CLEAR     58  52  80 S3        30.04R
ALTOONA        CLEAR     58  56  93 CALM      30.02R FOG
STATE COLLEGE  CLEAR     57  57 100 CALM      30.01R
WILLIAMSPORT   CLOUDY    63  61  93 NW6       29.99R FOG
SELINSGROVE    FOG       64  63  96 N3        29.99R VSB 1/4
FT INDIANTOWN  FOG       61  61 100 VRB1      29.97S VSB<1/4
CAPITAL CITY   FOG       67  64  90 W5        29.97R VSB 1/2
HARRISBURG     CLOUDY    67  64  90 N7        29.96R FOG
YORK           FOG       64  64 100 CALM      29.97S VSB 1/4
$$

PAZ038>040-043-044-047-048-054-055-060>062-067>071-311100-
EASTERN PENNSYLVANIA

CITY           SKY/WX    TMP DP  RH WIND       PRES   REMARKS
SCRANTON       FOG       61  61 100 CALM      29.99R VSB 1/2
MOUNT POCONO   CLOUDY    60  57  89 N7        29.99S
ALLENTOWN      CLOUDY    65  62  90 W3        29.96R
QUAKERTOWN*    CLOUDY    66  66 100 CALM      29.97S
READING        CLEAR     65  63  93 CALM      29.96R
LANCASTER      CLOUDY    66  65  96 CALM      29.96R
COATESVILLE    CLOUDY    68  66  94 NW5       29.98S FOG
POTTSTOWN      CLOUDY    67  66  97 CALM      29.97S
BLUE BELL      MOCLDY    64  64 100 CALM      29.95R
DOYLESTOWN     MOCLDY    68  66  93 CALM      29.95R
WILLOW GROVE   NOT AVBL
NORTH PHILA    CLOUDY    72  67  84 CALM      29.96R
PHILADELPHIA   CLOUDY    71  67  87 SW3       29.95S
$$




USA.gov is the U.S. government's official web portal to all federal, state and local government web resources and services.